Change the Weather History Date:

Tuesday, October 25, 2011

  Actual Average Record
Temperature  
Mean Temperature 45 °F 48 °F  
Max Temperature 56 °F 55 °F 65 °F (2003)
Min Temperature 33 °F 41 °F 30 °F (1978)
Degree Days  
Heating Degree Days 20 17  
Month to date heating degree days 361  
Since 1 July heating degree days 986  
Cooling Degree Days 0 0  
Month to date cooling degree days 0  
Year to date cooling degree days 19  
Moisture  
Dew Point 38 °F    
Average Humidity 93    
Maximum Humidity 100    
Minimum Humidity 64    
Precipitation  
Precipitation 0.01 in 0.41 in 3.21 in (1971)
Month to date precipitation 7.87  
Year to date precipitation 68.41  
Sea Level Pressure  
Sea Level Pressure 30.42 in    
Wind  
Wind Speed 2 mph (East)    
Max Wind Speed 8 mph    
Max Gust Speed 10 mph    
Visibility 6 miles    
Events      
T = Trace of Precipitation, MM = Missing Value Source: NWS Daily Summary

Daily Weather History Graph

Daily Weather History Graph

Search for Another Location

Airport or City:

Trip Planner

Search our weather history database for the weather conditions in past years. The results will help you decide how hot, cold, wet, or windy it might be!

Date:

Astronomy

Oct. 25, 2011 Rise Set
Actual Time 7:52 AM PDT 6:11 PM PDT
Civil Twilight 7:20 AM PDT 6:43 PM PDT
Nautical Twilight 6:43 AM PDT 7:19 PM PDT
Astronomical Twilight 6:08 AM PDT 7:55 PM PDT
Moon 6:29 AM PDT (10/25) 5:16 PM PDT (10/25)
Length of Visible Light 11h 23m
Length of Day
10h 19m
Waning Crescent, 2% of the Moon is Illuminated
Oct 25
Waning Crescent
Oct 26
New
Nov 2
First Quarter
Nov 10
Full
Nov 18
Last Quarter

Hourly Weather History & Observations

Time (PDT) Temp. Windchill Dew Point Humidity Pressure Visibility Wind Dir Wind Speed Gust Speed Precip Events Conditions
12:02 AM 37.4 °F - 37.4 °F 100% 30.40 in 1.8 mi Calm Calm - N/A   Clear
12:14 AM 35.6 °F - 35.6 °F 100% 30.40 in 3.0 mi Calm Calm - N/A   Clear
12:20 AM 37.4 °F - 37.4 °F 100% 30.40 in 1.8 mi Calm Calm - N/A   Clear
12:26 AM 37.4 °F - 35.6 °F 93% 30.40 in 3.0 mi Calm Calm - N/A   Clear
12:32 AM 37.4 °F - 35.6 °F 93% 30.40 in 1.5 mi Calm Calm - N/A   Clear
12:43 AM 35.6 °F - 35.6 °F 100% 30.40 in 3.0 mi Calm Calm - N/A   Clear
12:53 AM 36.0 °F - 35.1 °F 97% 30.41 in 10.0 mi Calm Calm - N/A   Clear
1:50 AM 35.6 °F - 35.6 °F 100% 30.40 in 6.0 mi Calm Calm - N/A   Partly Cloudy
1:53 AM 36.0 °F - 35.1 °F 97% 30.40 in 3.0 mi Calm Calm - N/A   Partly Cloudy
1:56 AM 35.6 °F - 35.6 °F 100% 30.40 in 1.8 mi Calm Calm - N/A   Partly Cloudy
2:01 AM 37.4 °F - 35.6 °F 93% 30.40 in 1.0 mi Calm Calm - N/A   Mist
2:13 AM 35.6 °F - 33.8 °F 93% 30.40 in 1.2 mi Calm Calm - N/A   Partly Cloudy
2:17 AM 35.6 °F - 33.8 °F 93% 30.40 in 2.0 mi Calm Calm - N/A   Scattered Clouds
2:35 AM 35.6 °F - 35.6 °F 100% 30.40 in 10.0 mi Calm Calm - N/A   Mostly Cloudy
2:53 AM 37.0 °F - 37.0 °F 100% 30.41 in 10.0 mi Calm Calm - N/A   Mostly Cloudy
3:17 AM 37.4 °F - 37.4 °F 100% 30.41 in 10.0 mi Calm Calm - 0.01 in   Overcast
3:53 AM 41.0 °F 37.1 °F 39.9 °F 96% 30.42 in 10.0 mi East 5.8 mph - 0.01 in   Overcast
4:07 AM 39.2 °F - 39.2 °F 100% 30.41 in 10.0 mi Calm Calm - N/A   Scattered Clouds
4:53 AM 37.0 °F - 37.0 °F 100% 30.42 in 8.0 mi Calm Calm - N/A   Partly Cloudy
4:57 AM 37.4 °F - 37.4 °F 100% 30.42 in 1.8 mi Calm Calm - N/A   Partly Cloudy
5:05 AM 37.4 °F - 35.6 °F 93% 30.42 in 1.0 mi Calm Calm - N/A   Partly Cloudy
5:09 AM 35.6 °F - 35.6 °F 100% 30.42 in 2.0 mi Calm Calm - N/A   Scattered Clouds
5:17 AM 37.4 °F 34.9 °F 35.6 °F 93% 30.42 in 9.0 mi East 3.5 mph - N/A   Scattered Clouds
5:35 AM 35.6 °F - 35.6 °F 100% 30.42 in 1.8 mi Calm Calm - N/A   Partly Cloudy
5:44 AM 37.4 °F - 37.4 °F 100% 30.42 in 3.0 mi Calm Calm - N/A   Clear
5:53 AM 36.0 °F 33.3 °F 35.1 °F 97% 30.43 in 9.0 mi East 3.5 mph - N/A   Clear
6:06 AM 35.6 °F - 35.6 °F 100% 30.43 in 2.0 mi Calm Calm - N/A   Clear
6:13 AM 35.6 °F - 35.6 °F 100% 30.43 in 1.2 mi Calm Calm - N/A   Clear
6:18 AM 35.6 °F - 35.6 °F 100% 30.43 in 0.8 mi Calm Calm - N/A   Mist
6:26 AM 35.6 °F - 35.6 °F 100% 30.43 in 1.0 mi Calm Calm - N/A   Clear
6:30 AM 35.6 °F - 35.6 °F 100% 30.43 in 2.0 mi Calm Calm - N/A   Clear
6:39 AM 33.8 °F - 33.8 °F 100% 30.43 in 5.0 mi Calm Calm - N/A   Clear
6:49 AM 33.8 °F - 33.8 °F 100% 30.43 in 2.0 mi Calm Calm - N/A   Clear
6:53 AM 35.1 °F - 34.0 °F 96% 30.44 in 5.0 mi Calm Calm - N/A   Clear
7:26 AM 33.8 °F - 33.8 °F 100% 30.43 in 1.8 mi Calm Calm - N/A   Clear
7:35 AM 33.8 °F - 33.8 °F 100% 30.43 in 3.0 mi Calm Calm - N/A   Clear
7:53 AM 34.0 °F - 33.1 °F 96% 30.44 in 2.0 mi Calm Calm - N/A   Clear
8:06 AM 33.8 °F - 33.8 °F 100% 30.44 in 6.0 mi Calm Calm - N/A   Clear
8:53 AM 36.0 °F - 35.1 °F 97% 30.45 in 10.0 mi Calm Calm - N/A   Clear
9:53 AM 43.0 °F 41.3 °F 39.9 °F 89% 30.46 in 10.0 mi East 3.5 mph - N/A   Clear
10:53 AM 46.9 °F - 42.1 °F 83% 30.46 in 10.0 mi East 4.6 mph - N/A   Clear
11:30 AM 50.0 °F - 42.8 °F 76% 30.47 in 1.2 mi ESE 3.5 mph - N/A   Haze
11:38 AM 50.0 °F - 42.8 °F 76% 30.47 in 10.0 mi Calm Calm - N/A   Clear
11:53 AM 51.1 °F - 41.0 °F 68% 30.48 in 10.0 mi Calm Calm - N/A   Clear
12:53 PM 54.0 °F - 43.0 °F 66% 30.47 in 10.0 mi Variable 3.5 mph - N/A   Clear
1:53 PM 54.0 °F - 44.1 °F 69% 30.45 in 10.0 mi Variable 3.5 mph - N/A   Clear
2:53 PM 55.9 °F - 44.1 °F 64% 30.44 in 10.0 mi Variable 4.6 mph - N/A   Clear
3:53 PM 54.0 °F - 43.0 °F 66% 30.43 in 10.0 mi SSW 4.6 mph - N/A   Clear
4:53 PM 52.0 °F - 44.1 °F 74% 30.43 in 10.0 mi West 4.6 mph - N/A   Clear
5:53 PM 48.9 °F - 43.0 °F 80% 30.42 in 10.0 mi Calm Calm - N/A   Clear
6:53 PM 43.0 °F - 42.1 °F 97% 30.43 in 10.0 mi Calm Calm - N/A   Clear
7:53 PM 42.1 °F - 41.0 °F 96% 30.43 in 8.0 mi Calm Calm - N/A   Clear
8:02 PM 39.2 °F - 37.4 °F 93% 30.42 in 1.5 mi Calm Calm - N/A   Clear
8:09 PM 41.0 °F - 39.2 °F 93% 30.41 in 1.0 mi Calm Calm - N/A   Clear
8:18 PM 39.2 °F - 39.2 °F 100% 30.41 in 2.0 mi Calm Calm - N/A   Clear
8:28 PM 39.2 °F - 39.2 °F 100% 30.41 in 6.0 mi Calm Calm - N/A   Clear
8:53 PM 41.0 °F 37.1 °F 39.9 °F 96% 30.41 in 10.0 mi East 5.8 mph - N/A   Clear
9:53 PM 41.0 °F 39.0 °F 39.9 °F 96% 30.41 in 10.0 mi East 3.5 mph - N/A   Clear
10:53 PM 39.9 °F 36.7 °F 37.9 °F 93% 30.40 in 10.0 mi East 4.6 mph - N/A   Clear
11:53 PM 36.0 °F - 35.1 °F 97% 30.38 in 3.0 mi Calm Calm - N/A   Clear